GW4812 Weather Reports


time (UTC)temp
C
wind
direction
speed
KPH
gust
KPH
rain 1hr
cm
rain 24hr
cm
rain mn
cm
humidity
%
barometer
mb
20260506202052 16 202 1.6 1.6 0.00 0.00 0.30 93 1007.0
20260506201553 16 258 0.0 1.6 0.00 0.00 0.30 93 1007.0
20260506201052 16 194 3.2 3.2 0.00 0.00 0.30 93 1007.0
20260506200552 16 213 1.6 3.2 0.00 0.00 0.30 93 1007.0
20260506200052 16 226 1.6 3.2 0.00 0.00 0.30 93 1007.0
20260506195552 16 200 1.6 3.2 0.00 0.00 0.30 93 1007.0
20260506195053 16 248 0.0 1.6 0.00 0.00 0.30 93 1007.0
20260506194553 16 192 1.6 3.2 0.00 0.00 0.30 93 1008.0
20260506194052 16 247 1.6 3.2 0.00 0.00 0.30 93 1008.0
20260506193553 16 206 3.2 3.2 0.00 0.00 0.30 93 1008.0
20260506193053 16 208 3.2 4.8 0.00 0.00 0.30 92 1008.0
20260506192552 16 165 0.0 1.6 0.18 0.00 0.30 92 1008.0
20260506192053 16 347 1.6 3.2 0.25 0.00 0.30 92 1008.0
20260506191552 16 227 3.2 3.2 0.03 0.00 0.28 91 1008.0
20260506191052 16 230 3.2 4.8 0.18 0.00 0.28 91 1008.0
20260506190553 16 240 0.0 1.6 0.03 0.00 0.25 91 1008.0
20260506190052 16 212 1.6 3.2 0.00 0.00 0.25 91 1008.0
20260506185553 16 219 0.0 0.0 0.00 0.00 0.25 91 1008.0
20260506185052 16 216 1.6 3.2 0.00 0.00 0.25 91 1008.0
20260506184552 16 268 1.6 4.8 0.00 0.00 0.25 91 1008.0
20260506184053 16 276 1.6 3.2 0.00 0.00 0.25 91 1008.0
20260506183553 16 194 1.6 3.2 0.00 0.00 0.25 91 1008.0
20260506183053 16 334 1.6 4.8 0.30 0.00 0.25 91 1008.0
20260506182553 16 295 1.6 3.2 0.03 0.00 0.23 90 1008.0
20260506182053 16 359 0.0 1.6 0.05 0.00 0.23 90 1008.0
20260506181553 16 261 1.6 3.2 0.20 0.00 0.23 89 1008.0
20260506181052 16 226 1.6 1.6 0.00 0.00 0.23 89 1008.0
20260506180552 16 342 0.0 0.0 0.00 0.00 0.20 89 1008.0
20260506180052 16 235 1.6 4.8 0.00 0.00 0.20 88 1008.0
20260506175553 17 191 3.2 6.4 0.03 0.00 0.20 88 1008.0
20260506175052 17 264 1.6 3.2 0.00 0.00 0.20 88 1008.0
20260506174552 17 209 1.6 3.2 0.00 0.00 0.20 88 1008.0
20260506174054 17 277 1.6 4.8 0.00 0.00 0.20 88 1008.0
20260506173553 17 297 1.6 3.2 0.00 0.00 0.20 88 1008.0
20260506173054 17 206 1.6 3.2 0.03 0.00 0.20 89 1008.0
20260506172552 16 180 0.0 0.0 0.00 0.00 0.20 89 1008.0
20260506172052 16 19 1.6 3.2 0.03 0.00 0.20 89 1008.0
20260506171552 16 195 0.0 3.2 0.10 0.00 0.20 90 1009.0
20260506171054 16 357 1.6 1.6 0.10 0.00 0.18 90 1008.0
20260506170554 16 99 0.0 3.2 0.18 0.00 0.18 89 1008.0
20260506170053 16 49 0.0 1.6 0.15 0.00 0.15 89 1008.0
20260506165553 16 0 0.0 0.0 0.00 0.00 0.15 88 1008.0
20260506165052 16 262 0.0 1.6 0.00 0.00 0.13 88 1008.0
20260506164555 16 0 0.0 0.0 0.00 0.00 0.13 88 1009.0
20260506164052 16 215 1.6 3.2 0.13 0.00 0.13 88 1009.0
20260506163553 16 339 0.0 1.6 0.05 0.00 0.10 87 1009.0
20260506163053 16 269 0.0 1.6 0.08 0.00 0.10 87 1009.0
20260506162552 17 176 1.6 3.2 0.03 0.00 0.10 87 1009.0
20260506162053 17 234 3.2 6.4 0.08 0.00 0.13 85 1009.0
20260506161552 17 0 0.0 0.0 0.20 0.00 0.10 85 1009.0
20260506161053 17 0 0.0 0.0 0.08 0.00 0.10 85 1009.0
20260506160552 17 114 0.0 0.0 0.03 0.00 0.08 84 1010.0
20260506160053 17 0 0.0 0.0 0.00 0.00 0.08 84 1010.0
20260506155553 17 151 0.0 0.0 0.00 0.00 0.08 83 1010.0
20260506155052 17 86 0.0 1.6 0.05 0.00 0.05 82 1010.0
20260506154553 18 7 0.0 1.6 0.00 0.00 0.05 80 1010.0
20260506154053 18 142 0.0 1.6 0.00 0.00 0.05 79 1010.0
20260506153553 18 168 0.0 1.6 0.00 0.00 0.03 79 1010.0
20260506153053 18 276 0.0 1.6 0.03 0.00 0.03 79 1010.0
20260506152553 18 267 3.2 4.8 0.03 0.00 0.03 77 1010.0
20260506152053 18 216 1.6 3.2 0.00 0.00 0.00 77 1009.0
20260506151553 18 197 3.2 4.8 0.00 0.00 0.00 76 1009.0
20260506151053 18 258 3.2 3.2 0.00 0.00 0.00 76 1009.0
20260506150553 18 139 4.8 6.4 0.00 0.00 0.00 74 1009.0
20260506150054 18 212 1.6 3.2 0.00 0.00 0.00 73 1010.0
20260506145604 19 145 3.2 4.8 0.00 0.00 0.00 73 1010.0
20260506145053 19 250 3.2 3.2 0.00 0.00 0.00 71 1010.0
20260506144555 19 205 1.6 3.2 0.00 0.00 0.00 71 1010.0
20260506144053 19 269 1.6 3.2 0.00 0.00 0.00 71 1010.0
20260506143553 19 259 1.6 4.8 0.00 0.00 0.00 71 1010.0
20260506143052 19 171 6.4 11.3 0.00 0.00 0.00 71 1010.0
20260506142553 19 213 1.6 4.8 0.00 0.00 0.00 71 1010.0
20260506142052 18 157 3.2 4.8 0.00 0.00 0.00 72 1010.0
20260506141552 18 236 0.0 1.6 0.00 0.00 0.00 72 1010.0
20260506141055 18 220 1.6 1.6 0.00 0.00 0.00 72 1010.0
20260506140552 18 202 1.6 3.2 0.00 0.00 0.00 71 1010.0
20260506140054 18 260 1.6 3.2 0.00 0.00 0.00 71 1010.0
20260506135553 18 4 1.6 1.6 0.00 0.00 0.00 71 1010.0
20260506135053 19 309 3.2 3.2 0.00 0.00 0.00 71 1010.0
20260506134554 19 253 0.0 1.6 0.00 0.00 0.00 71 1010.0
20260506134053 19 260 1.6 4.8 0.00 0.00 0.00 71 1010.0
20260506133552 19 302 1.6 3.2 0.00 0.00 0.00 71 1010.0
20260506133052 19 351 3.2 6.4 0.00 0.00 0.00 71 1010.0
20260506132553 19 198 1.6 4.8 0.00 0.00 0.00 71 1010.0
20260506132053 19 195 3.2 6.4 0.00 0.00 0.00 71 1010.0
20260506131553 18 154 3.2 4.8 0.00 0.00 0.00 71 1010.0
20260506131053 18 8 1.6 3.2 0.00 0.00 0.00 72 1010.0
20260506130553 18 223 1.6 1.6 0.00 0.00 0.00 72 1010.0
20260506130053 18 259 0.0 1.6 0.00 0.00 0.00 72 1010.0
20260506125553 18 224 1.6 4.8 0.00 0.00 0.00 72 1010.0
20260506125054 18 202 3.2 3.2 0.00 0.00 0.00 72 1010.0
20260506124553 18 212 1.6 3.2 0.00 0.00 0.00 73 1010.0
20260506124052 18 247 3.2 4.8 0.00 0.00 0.00 73 1010.0
20260506123552 18 232 1.6 3.2 0.00 0.00 0.00 73 1010.0
20260506123053 18 40 1.6 1.6 0.00 0.00 0.00 73 1009.0
20260506122552 18 228 3.2 3.2 0.00 0.00 0.00 74 1010.0
20260506122053 18 234 1.6 1.6 0.00 0.00 0.00 75 1010.0
20260506121553 18 221 1.6 3.2 0.00 0.00 0.00 75 1010.0
20260506121052 18 9 0.0 0.0 0.00 0.00 0.00 75 1010.0
20260506120553 18 215 1.6 3.2 0.00 0.00 0.00 75 1010.0
20260506120053 18 247 3.2 4.8 0.00 0.00 0.00 75 1010.0
20260506115552 18 223 1.6 3.2 0.00 0.00 0.00 75 1010.0
20260506115052 18 177 3.2 4.8 0.00 0.00 0.00 75 1010.0
20260506114552 17 170 3.2 4.8 0.00 0.00 0.00 76 1010.0
20260506114053 17 40 1.6 1.6 0.00 0.00 0.00 76 1010.0
20260506113553 17 298 0.0 0.0 0.00 0.00 0.00 76 1010.0
20260506113053 17 308 0.0 1.6 0.00 0.00 0.00 77 1010.0
20260506112552 17 147 0.0 0.0 0.00 0.00 0.00 77 1010.0
20260506112053 17 151 0.0 1.6 0.00 0.00 0.00 77 1010.0
20260506111552 17 228 0.0 0.0 0.00 0.00 0.00 77 1010.0
20260506111053 17 252 0.0 1.6 0.00 0.00 0.00 78 1010.0
20260506110552 17 166 1.6 1.6 0.00 0.00 0.00 78 1010.0
20260506110052 17 312 0.0 1.6 0.00 0.00 0.00 78 1010.0
20260506105553 17 57 1.6 1.6 0.00 0.00 0.00 78 1010.0
20260506105054 17 317 0.0 0.0 0.00 0.00 0.00 79 1010.0
20260506104554 17 105 0.0 0.0 0.00 0.00 0.00 79 1010.0
20260506104053 17 173 1.6 3.2 0.00 0.00 0.00 79 1010.0
20260506103553 17 258 0.0 1.6 0.00 0.00 0.00 79 1010.0
20260506103053 17 316 0.0 1.6 0.00 0.00 0.00 79 1010.0
20260506102553 17 277 3.2 3.2 0.00 0.00 0.00 79 1010.0
20260506102052 17 207 1.6 3.2 0.00 0.00 0.00 79 1010.0
20260506101554 17 240 0.0 1.6 0.00 0.00 0.00 79 1010.0
20260506101053 17 215 1.6 3.2 0.00 0.00 0.00 79 1010.0
20260506100552 17 294 1.6 3.2 0.00 0.00 0.00 79 1010.0
20260506100054 17 155 0.0 1.6 0.00 0.00 0.00 79 1010.0
20260506095552 17 208 1.6 3.2 0.00 0.00 0.00 79 1010.0
20260506095052 17 314 1.6 3.2 0.00 0.00 0.00 79 1010.0
20260506094553 17 269 1.6 1.6 0.00 0.00 0.00 80 1010.0
20260506094057 17 83 1.6 3.2 0.00 0.00 0.00 80 1010.0
20260506093553 16 176 0.0 1.6 0.00 0.00 0.00 80 1010.0
20260506093052 16 127 1.6 3.2 0.00 0.00 0.00 80 1010.0
20260506092552 16 129 0.0 1.6 0.00 0.00 0.00 81 1010.0
20260506092053 16 245 0.0 1.6 0.00 0.00 0.00 80 1010.0
20260506091552 16 279 0.0 1.6 0.00 0.00 0.00 81 1010.0
20260506091053 16 0 0.0 0.0 0.00 0.00 0.00 81 1010.0
20260506090552 16 0 0.0 0.0 0.00 0.00 0.00 80 1010.0
20260506090052 16 187 0.0 1.6 0.00 0.00 0.00 80 1010.0
20260506085553 17 0 0.0 0.0 0.00 0.00 0.00 80 1010.0
20260506085053 17 236 0.0 1.6 0.00 0.00 0.00 79 1010.0
20260506084553 17 310 0.0 1.6 0.00 0.00 0.00 79 1010.0
20260506084052 17 318 0.0 1.6 0.00 0.00 0.00 79 1010.0
20260506083553 17 269 0.0 1.6 0.00 0.00 0.00 79 1010.0
20260506083053 17 211 0.0 1.6 0.00 0.00 0.00 79 1010.0
20260506082129 17 280 0.0 1.6 0.00 0.00 0.00 78 1010.0
20260506081552 17 249 1.6 1.6 0.00 0.00 0.00 78 1010.0
20260506081052 17 0 0.0 0.0 0.00 0.00 0.00 78 1010.0
20260506080553 17 202 0.0 0.0 0.00 0.00 0.00 77 1010.0
20260506073053 17 0 0.0 0.0 0.00 0.00 0.00 76 1010.0
20260506072554 17 267 0.0 0.0 0.00 0.00 0.00 75 1010.0
20260506072053 17 167 1.6 1.6 0.00 0.00 0.00 75 1010.0
20260506071552 17 162 1.6 1.6 0.00 0.00 0.00 75 1010.0
20260506071052 17 295 1.6 3.2 0.00 0.00 0.00 74 1010.0
20260506070552 17 352 1.6 3.2 0.00 0.00 0.00 74 1010.0
20260506062052 18 0 0.0 0.0 0.00 0.00 0.00 70 1010.0
20260506061552 18 205 1.6 3.2 0.00 0.00 0.00 70 1010.0
20260506061052 18 0 0.0 0.0 0.00 0.00 0.00 70 1010.0
20260506060553 18 0 0.0 0.0 0.00 0.00 0.00 69 1010.0
20260506051052 18 0 0.0 0.0 0.00 0.00 0.00 67 1011.0
20260506050552 18 83 1.6 3.2 0.00 0.00 0.00 67 1011.0
20260506045053 18 0 0.0 0.0 0.00 0.00 0.00 66 1011.0
20260506044553 19 0 0.0 0.0 0.00 0.00 0.00 65 1011.0
20260506044052 19 0 0.0 0.0 0.00 0.00 0.00 65 1011.0
20260506043552 19 220 1.6 1.6 0.00 0.00 0.00 65 1011.0
20260506043053 19 177 0.0 0.0 0.00 0.00 0.00 64 1011.0
20260506042552 19 148 1.6 3.2 0.00 0.00 0.00 64 1011.0
20260506042052 19 92 0.0 1.6 0.00 0.00 0.00 64 1011.0
20260506041552 19 284 0.0 1.6 0.00 0.00 0.00 63 1011.0
20260506041053 19 252 1.6 1.6 0.00 0.00 0.00 63 1011.0
20260506040552 19 282 1.6 4.8 0.00 0.00 0.00 63 1011.0
20260506040053 20 215 0.0 1.6 0.00 0.00 0.00 63 1011.0
20260506035552 20 192 1.6 1.6 0.00 0.00 0.05 62 1011.0
20260506035052 20 212 1.6 1.6 0.00 0.00 0.05 62 1011.0
20260506034553 20 241 1.6 1.6 0.00 0.00 0.05 62 1011.0
20260506034053 20 207 3.2 3.2 0.00 0.00 0.05 61 1011.0
20260506033553 20 236 1.6 3.2 0.00 0.00 0.05 62 1011.0
20260506033052 20 0 0.0 0.0 0.00 0.00 0.05 61 1011.0
20260506032552 20 299 1.6 1.6 0.00 0.00 0.05 62 1011.0
20260506032056 20 4 0.0 0.0 0.00 0.00 0.05 61 1011.0
20260506031555 20 162 1.6 3.2 0.00 0.00 0.05 61 1011.0
20260506031055 20 340 1.6 1.6 0.00 0.00 0.05 60 1011.0
20260506030555 20 322 1.6 3.2 0.00 0.00 0.05 60 1011.0
20260506030052 20 256 0.0 3.2 0.00 0.00 0.05 60 1011.0
20260506025553 20 309 1.6 3.2 0.00 0.00 0.05 60 1011.0
20260506025053 20 267 1.6 3.2 0.00 0.00 0.05 59 1011.0
20260506024552 20 328 0.0 1.6 0.00 0.00 0.05 60 1011.0
20260506024052 21 332 0.0 0.0 0.00 0.00 0.05 59 1011.0
20260506023553 21 255 0.0 1.6 0.00 0.00 0.05 58 1011.0
20260506023052 21 190 3.2 3.2 0.00 0.00 0.05 58 1011.0
20260506022552 21 265 3.2 8.0 0.00 0.00 0.05 58 1011.0
20260506022053 21 297 1.6 1.6 0.00 0.00 0.05 57 1010.0
20260506021553 21 227 1.6 3.2 0.00 0.00 0.05 56 1011.0
20260506021052 21 314 1.6 3.2 0.00 0.00 0.05 55 1011.0
20260506020553 21 5 1.6 3.2 0.00 0.00 0.05 55 1010.0
20260506020052 22 264 3.2 6.4 0.00 0.00 0.05 54 1010.0
20260506015552 22 256 3.2 8.0 0.00 0.00 0.05 53 1010.0
20260506015053 22 232 3.2 6.4 0.00 0.00 0.05 52 1010.0
20260506014553 22 259 3.2 3.2 0.00 0.00 0.05 52 1010.0
20260506014053 22 22 3.2 4.8 0.00 0.00 0.05 50 1010.0
20260506013553 22 261 1.6 3.2 0.00 0.00 0.05 49 1010.0
20260506013053 22 289 3.2 6.4 0.00 0.00 0.05 48 1010.0
20260506012553 22 283 3.2 6.4 0.00 0.00 0.05 47 1010.0
20260506012053 22 307 3.2 6.4 0.00 0.00 0.05 47 1010.0
20260506011553 22 243 1.6 3.2 0.00 0.00 0.05 47 1010.0
20260506011052 23 257 3.2 4.8 0.00 0.00 0.05 47 1010.0
20260506010554 23 222 0.0 1.6 0.00 0.00 0.05 46 1010.0
20260506010052 23 245 1.6 3.2 0.00 0.00 0.05 47 1010.0
20260506005553 23 253 3.2 4.8 0.00 0.00 0.05 46 1010.0
20260506005053 23 297 3.2 4.8 0.00 0.00 0.05 46 1010.0
20260506004552 23 285 1.6 3.2 0.00 0.00 0.05 47 1009.0
20260506004052 23 346 0.0 0.0 0.00 0.00 0.05 46 1009.0
20260506003552 23 354 3.2 4.8 0.00 0.00 0.05 45 1009.0
20260506003053 23 39 1.6 3.2 0.00 0.00 0.05 45 1009.0
20260506002553 23 266 1.6 3.2 0.00 0.00 0.05 44 1009.0
20260506002052 23 232 3.2 4.8 0.00 0.00 0.05 44 1009.0
20260506001552 23 215 3.2 3.2 0.00 0.00 0.05 43 1009.0
20260506001054 23 202 1.6 4.8 0.00 0.00 0.05 43 1009.0
20260506000553 24 354 3.2 11.3 0.00 0.00 0.05 43 1009.0
20260506000052 24 273 1.6 3.2 0.00 0.00 0.05 41 1009.0
20260505235553 24 282 1.6 3.2 0.00 0.00 0.05 41 1009.0
20260505235056 24 183 1.6 4.8 0.00 0.00 0.05 40 1009.0
20260505234552 25 218 0.0 3.2 0.00 0.00 0.05 40 1009.0
20260505234052 25 317 1.6 3.2 0.00 0.00 0.05 39 1009.0
20260505233552 25 252 0.0 3.2 0.00 0.00 0.05 39 1009.0
20260505233053 25 291 3.2 6.4 0.00 0.00 0.05 38 1009.0
20260505232553 25 265 1.6 3.2 0.00 0.00 0.05 38 1009.0
20260505232053 25 298 1.6 3.2 0.00 0.00 0.05 38 1009.0
20260505231552 25 211 1.6 3.2 0.00 0.00 0.05 37 1009.0
20260505231052 25 209 3.2 6.4 0.00 0.00 0.05 36 1009.0
20260505230553 25 210 3.2 9.7 0.00 0.00 0.05 36 1008.0
20260505230053 25 247 4.8 9.7 0.00 0.00 0.05 36 1008.0
20260505225556 25 213 3.2 6.4 0.00 0.00 0.05 37 1008.0
20260505225053 25 346 1.6 4.8 0.00 0.00 0.05 36 1008.0
20260505224553 26 209 3.2 6.4 0.00 0.00 0.05 36 1008.0
20260505224053 26 210 3.2 6.4 0.00 0.00 0.05 35 1008.0
20260505223553 26 222 3.2 4.8 0.00 0.00 0.05 35 1008.0
20260505223053 26 246 3.2 4.8 0.00 0.00 0.05 35 1008.0
20260505222552 26 220 3.2 6.4 0.00 0.00 0.05 35 1008.0
20260505222055 26 202 3.2 8.0 0.00 0.00 0.05 34 1008.0
20260505221553 26 274 3.2 6.4 0.00 0.00 0.05 34 1008.0
20260505221053 26 240 3.2 4.8 0.00 0.00 0.05 34 1008.0
20260505220553 26 226 3.2 4.8 0.00 0.00 0.05 34 1008.0
20260505220052 26 166 1.6 3.2 0.00 0.00 0.05 33 1008.0
20260505215553 26 231 1.6 3.2 0.00 0.00 0.05 33 1008.0
20260505215053 26 207 3.2 4.8 0.00 0.00 0.05 32 1008.0
20260505214553 26 150 3.2 6.4 0.00 0.00 0.05 32 1008.0
20260505214053 26 211 3.2 8.0 0.00 0.00 0.05 32 1008.0
20260505213553 27 255 4.8 9.7 0.00 0.00 0.05 32 1008.0
20260505213053 27 267 1.6 4.8 0.00 0.00 0.05 33 1008.0
20260505212553 27 268 6.4 9.7 0.00 0.00 0.05 32 1008.0
20260505212053 27 204 3.2 8.0 0.00 0.00 0.05 33 1008.0
20260505211552 27 305 3.2 6.4 0.00 0.00 0.05 34 1008.0
20260505211052 27 290 4.8 14.5 0.00 0.00 0.05 33 1008.0
20260505210552 27 272 3.2 8.0 0.00 0.00 0.05 34 1008.0
20260505210052 27 210 4.8 8.0 0.00 0.00 0.05 34 1008.0
20260505205552 27 319 6.4 8.0 0.00 0.00 0.05 33 1007.0
20260505205053 27 277 3.2 8.0 0.00 0.00 0.05 34 1008.0
20260505204553 27 219 4.8 6.4 0.00 0.00 0.05 34 1008.0
20260505204053 27 270 4.8 6.4 0.00 0.00 0.05 34 1008.0
20260505203553 27 325 4.8 8.0 0.00 0.00 0.05 34 1008.0
20260505203053 27 238 6.4 12.9 0.00 0.00 0.05 34 1008.0
20260505202552 27 262 3.2 6.4 0.00 0.00 0.05 34 1008.0